Regional Weather Roundup
Issued by NWS Upton, NY

Current Version | Previous Version | Graphics & Text | Print | Product List | Glossary Off
Versions: 1 2 3 4 5 6 7 8 9 10 11 12 13 14 15 16 17 18 19 20 21 22 23 24 25 26 27 28 29 30 31 32 33 34 35 36 37 38 39 40 41 42 43 44 45 46 47 48 49 50

000
ASUS41 KOKX 030404
RWROKX

REGIONAL WEATHER ROUNDUP
NATIONAL WEATHER SERVICE NEW YORK NY
1200 AM EDT THU SEP 03 2015

NOTE: "FAIR" INDICATES FEW OR NO CLOUDS BELOW 12,000 FEET WITH NO
SIGNIFICANT WEATHER AND/OR OBSTRUCTIONS TO VISIBILITY.

NYZ071-072-176-178-NJZ106-104-030500-
NEW YORK CITY METRO AREA


CITY           SKY/WX    TMP DP  RH WIND       PRES   REMARKS
CENTRAL PARK   CLEAR     79  70  74 CALM      29.92F
LAGUARDIA APRT CLEAR     78  71  79 S5        29.88F
KENNEDY INTL   PTCLDY    76  73  91 S6        29.90F
NEWARK/LIBERTY CLEAR     78  71  79 S6        29.89F
BRNX BOT. GARD   N/A     73  70  88 CALM      29.89F
TETERBORO      CLEAR     76  68  76 CALM      29.88F
$$

NYZ177-179-078>081-030500-
LONG ISLAND NEW YORK

CITY           SKY/WX    TMP DP  RH WIND       PRES   REMARKS
FARMINGDALE    CLEAR     76  70  82 SW5       29.90F
ISLIP          PTCLDY    74  66  76 SW7       29.88F
SHIRLEY        CLEAR     74  67  78 SW5       29.90F
WESTHAMPTON    CLEAR     72  69  90 SW3       29.91F
MONTAUK POINT    N/A     74  69  85 CALM      29.91F
$$

NYZ052-065-067-030500-
HUDSON VALLEY

CITY           SKY/WX    TMP DP  RH WIND       PRES   REMARKS
WHITE PLAINS   CLEAR     71  67  87 CALM      29.90F
NEWBURGH       NOT AVBL
MONTGOMERY     CLEAR     67  65  93 CALM      29.91S
POUGHKEEPSIE   CLEAR     70  65  84 CALM      29.89S
ALBANY         PTCLDY    74  65  73 CALM      29.90R
$$

NJZ001-105-106-008-010-013-015-019>022-104-030500-
NEW JERSEY

CITY           SKY/WX    TMP DP  RH WIND       PRES   REMARKS
NEWARK/LIBERTY CLEAR     78  71  79 S6        29.89F
TETERBORO      CLEAR     76  68  76 CALM      29.88F
CALDWELL       CLEAR     72  66  81 CALM      29.90F
MORRISTOWN     CLEAR     64  61  88 CALM      29.90F
SOMERVILLE     CLEAR     70  66  87 CALM      29.89S
SUSSEX         CLEAR     66  64  93 CALM      29.93S FOG
ANDOVER          N/A     66  65  96 CALM      29.93F
TRENTON        CLEAR     74  70  87 NW3       29.90S
MILLVILLE      CLEAR     69  67  93 CALM      29.92S FOG
ATLANTIC CITY  CLEAR     74  71  91 CALM      29.91S
WRIGHTSTOWN    CLEAR     72  71  99 SW2       29.88S
TOMS RIVER     PTCLDY    73  70  88 SW5       29.91S
BELMAR         PTCLDY    73  66  78 SW3       29.90F
$$

PAZ047>061-062-071-030500-
EASTERN PENNSYLVANIA

CITY           SKY/WX    TMP DP  RH WIND       PRES   REMARKS
PHILADELPHIA   CLEAR     77  68  73 W8        29.92R
ALLENTOWN      CLEAR     73  66  78 CALM      29.93S
SCRANTON       CLEAR     70  63  78 E5        29.96F
$$

CTZ002-004>006-009-010-012-RIZ004-006-007-MAZ004-011-015-030500-
SOUTHERN NEW ENGLAND
 IN CT

CITY           SKY/WX    TMP DP  RH WIND       PRES   REMARKS
BRADLEY INTL   CLEAR     72  65  78 SW3       29.88S
HARTFORD       CLEAR     73  66  78 S3        29.88S
DANBURY        CLEAR     68  62  81 SW3       29.92S
WTRBRY/OXFORD  CLEAR     70  59  68 CALM      29.93S
BRIDGEPORT     CLEAR     77  67  71 SW6       29.89S
MERIDEN        CLEAR     68  64  87 CALM      29.89F
NEW HAVEN      CLEAR     75  66  73 S3        29.89F
CHESTER        NOT AVBL
GROTON         CLEAR     71  69  93 SW3       29.88F
WILLIMANTIC    CLEAR     68  64  87 CALM      29.89F

 IN RI

CITY           SKY/WX    TMP DP  RH WIND       PRES   REMARKS
PROVIDENCE     CLEAR     72  63  73 W6        29.89S
BLOCK ISLAND   CLEAR     72  70  94 W10       29.90F
WESTERLY       CLEAR     72  67  84 SW3       29.90F

 IN MA

CITY           SKY/WX    TMP DP  RH WIND       PRES   REMARKS
BOSTON         CLEAR     76  66  71 SW8       29.86S
WORCESTER      CLEAR     68  62  81 W9        29.91F
WESTFIELD      CLEAR     68  66  93 S3        29.89R
PROVINCETOWN     N/A     70  61  73 SW9       29.87S
NANTUCKET        N/A    N/A N/A N/A MISG      29.89F
$$

ANZ330-335-338-340-345-350-353-355-030500-
COASTAL MARINE OBSERVATIONS


STATION/POSITION TIME  SKY/WX   TEMP    WIND        PRES    VSBY  WAVE
                                AIR SEA DIR/SP/G                  HT/PER
                 (UTC)          (F)     (DEG/KT/KT) (MB)    (MI)  (FT/S)
NY HARB ENTRANCE 0250            77 77  190/ 10/ 12 1012.3          2/ 9
4S FIRE IS       NOT AVBL
20S FIRE ISLAND  0250            76 75  190/  8/  8 1012.5          2/ 8
GREAT SOUTH BAY  0330            77 79  220/  8/ 12   N/A
23SW MTP         0350            74 73  230/  8/  8 1012.1          2/ 7
HUDSON CANYON    NOT AVBL
KINGS POINT      0300            77 76  190/  8/  9 1011.7
EXECUTION ROCKS  0300            77     190/ 10/ 12   N/A
CENTRAL LI SOUND NOT AVBL
EASTERN LI SOUND 0300            73 71  210/  4/  6   N/A
ROBBINS REEF     0300            77     160/  7/  8 1011.3
$$


>>>>>>>>>>>>>>>>>>>>>>>>>>>> KEY <<<<<<<<<<<<<<<<<<<<<<<<<<<
>                                                          <
>     SKY/WX - SKY CONDITION/PRESENT WEATHER               <
>     TMP    - TEMPERATURE IN FAHRENHEIT                   <
>     DP     - DEWPOINT IN FAHRENHEIT                      <
>     RH     - RELATIVE HUMIDITY IN PERCENT                <
>     WIND   - DIRECTION AND SPEED IN MPH                  <
>     PRES   - MEAN SEA LEVEL PRESSURE IN INCHES OF HG     <
>     WCI    - WIND CHILL INDEX                            <
>     VSB    - VISIBILITY IN MILES                         <
>     HX     - HEAT INDEX                                  <
>     TC     - TEMPERATURE IN CELSIUS                      <
>     VRB    - VARIABLE WIND DIRECTION                     <
>                                                          <
>>>>>>>>>>>>>>>>>>>>>>>>>>>> KEY <<<<<<<<<<<<<<<<<<<<<<<<<<<





USA.gov is the U.S. government's official web portal to all federal, state and local government web resources and services.